Find Starlink 11666

NORAD ID: 63667 Int'l Des: 2025-085 Owner: SPXS Country: US Constellation: starlink operational
LEOCIRCULAR

实时位置

正在加载3D地球...

关于 Starlink 11666

正在加载描述...

即将过境

Passes for default location (London). Set your location on the main map for personalized predictions.

高度历史

Loading altitude history...

两行轨道根数

1 63667U 25085D 26126.46264288 .00167415 00000-0 12787-2 0 9996
2 63667 42.9982 290.5725 0001430 244.5681 115.5038 15.70902389 59238
Epoch: May 6, 2026 • Age: 12 hours

当前状态

高度 356.0 km
速度 7.70 km/s
星下点 -0.88°S, 72.18°E
发射日期 Apr 28, 2025
运行时间 1 years
类型 internet

技术详情

分类 Payload
质量 960.00 kg
干质量 910.00 kg
总质量 960.00 kg
长度 0.30 m
直径 4.10 m
跨度 29.00 m
形状 Box + pan
制造商 SPXS
平台类型 Starlink V2MD
阶段状态 In Orbit
所有者/国家 SPXS/US

Most Searched